Location: Appletree Creek
(38.7363°N, 122.6833°W)
Time: 18:09:52
(UTC+00:00)

SL-4 R/B - Pass Details

Date: 18 September 2020
Orbit: 428 x 666 km, 51.6° (Epoch: 19 October)

Event Time Altitude Azimuth Distance (km) Brightness Sun altitude
Exits shadow 12:36:28 15° 204° (SSW) 1,675 4.1 -16.0°
Maximum altitude 12:40:01 46° 134° (SE) 849 3.2 -15.3°
Drops below altitude 10° 12:44:35 10° 62° (ENE) 2,063 6.2 -14.5°
Sets 12:47:02 0° 56° (NE) 2,993 7.2 -14.0°
